User: anonymous   Login
Location: Newark
(10.3333°N, 37.7167°E)
Time: 12:12:30
(UTC+00:00)
Language:

STARLINK-1106 - Orbit

View from above orbital plane
View from above orbital plane
View from above satellite
View from above satellite

Ground track
Ground track

The orbit data is extracted from the following two-line orbital elements,

1 44923U 20001K   20089.25001157  .00040879  00000-0  28089-2 0  9992
2 44923  53.0001  14.5873 0002264  65.1348 250.9492 15.05574403 12572
Epoch (UTC): 29 March 2020 06:00:01
Eccentricity: 0.0002264
inclination: 53.0001°
perigee height: 548 km
apogee height: 551 km
right ascension of ascending node: 14.5873°
argument of perigee: 65.1348°
revolutions per day: 15.05574403
mean anomaly at epoch: 250.9492°
orbit number at epoch: 1257

The dashed part of the orbit path shows where the satellite is in the earth's shadow,  

DLR